Location: Mauries
(43.6188°N, 0.3322°W)
Time: 18:42:01
(UTC+00:00)

SKYMED 2 - Pass Details

Date: 14 January 2026
Orbit: 621 x 624 km, 97.9° (Epoch: 11 February)

Event Time Altitude Azimuth Distance (km) Brightness Sun altitude
Rises 05:46:09 0° 186° (S) 2,890 7.1 -18.8°
Reaches altitude 10° 05:48:28 10° 195° (SSW) 1,989 6.1 -18.3°
Maximum altitude 05:52:28 37° 262° (W) 980 4.1 -17.6°
Enters shadow 05:53:03 35° 281° (W) 1,012 4.1 -17.5°
